Weather in Abzakovo

Russia / Republic of Bashkortostan     53°49′53″N   58°35′27″E
temp.,
°C
wind,
m/s
gust,
m/s
humid.,
%
clouds,
%
prec.,
mm/h
press.,
hPa
HPBL,
m
1 july, fri
fri123:00+9w118477 0.1 101014
02:00+8wsw1187100 0.0 101111
05:00+9w1183100 0.0 101110
08:00+11nne0077100 0.0 101265
11:00+14ese1274100 0.8 1012260
14:00+15se2362100 0.9 10131027
17:00+14n0177100 2.4 1013220
20:00+13nw118072 1.0 101311
2 july, sat
sat223:00+10n228862 1.0 101414
02:00+8nne11915 0.0 101510
05:00+7n11925 0.0 101510
08:00+12nne12815 0.0 1014163
11:00+18se22504 0.1 10131590
14:00+16s235986 0.1 1013677
17:00+18wnw014764 0.1 10121274
20:00+16ese016569 0.0 101211
3 july, sun
sun323:00+11ese017491 0.0 101211
02:00+9e1181100 0.0 101210
05:00+8ene119054 0.0 101210
08:00+14e127076 0.0 1011262
11:00+18se335376 0.0 10101195
14:00+18s3463100 0.5 10091031
17:00+20sw224743 0.5 10071728
20:00+15nw117982 0.8 100611
4 july, mon
mon423:00+12n228899 2.7 100617
02:00+11nne249280 0.9 100584
05:00+10nne379994 0.9 1006293
08:00+10ne4996100 0.1 1006614
11:00+11ne3797100 0.3 1007757
14:00+10ne4997100 1.2 1008678
17:00+10ne399683 2.7 1008697
20:00+10nne499150 0.5 1009807
5 july, tue
tue523:00+6n36945 0.6 1011131
02:00+6nw22915 0.0 101132
05:00+4wnw119323 0.0 101211
08:00+8n36805 0.0 1012750
11:00+13ne465496 0.1 10111755
14:00+14ene2451100 0.1 10111505
17:00+14e3357100 0.1 1011787
20:00+13n016992 0.0 101212